WMT8133 LIRF-LFMN

Flight info

Callsign WMT8133
Flight time 0h 50m
Altitude 30000
Route PODOX DCT TOBGA DCT DOBIM DCT AKUTI R16 KERIT
Aircraft A321/M-SDE3FGHIRWY/LB1

Departure

Time 2026-05-04 16:52
Airport Rome–Fiumicino Leonardo da Vinci International Airport (LIRF)

Arrival

Time 2026-05-04 17:42
Airport Nice-Côte d'Azur Airport (LFMN)
Time Latitude Longitude Altitude Speed Heading
2026-05-04 16:32 41.79662 12.25971 14 ft 0 kts 295°
2026-05-04 16:44 41.79649 12.26009 19 ft 4 kts 307°
2026-05-04 16:45 41.79610 12.26016 16 ft 1 kts 25°
2026-05-04 16:46 41.79606 12.26014 16 ft 0 kts 25°
2026-05-04 16:47 41.79647 12.26040 14 ft 8 kts 25°
2026-05-04 16:48 41.79808 12.25945 14 ft 14 kts 294°
2026-05-04 16:48 41.79850 12.25831 15 ft 13 kts 312°
2026-05-04 16:49 41.80029 12.25917 14 ft 23 kts 25°
2026-05-04 16:49 41.80349 12.26131 15 ft 17 kts 50°
2026-05-04 16:50 41.80456 12.26496 15 ft 28 kts 70°
2026-05-04 16:50 41.80585 12.26971 13 ft 16 kts 70°
2026-05-04 16:51 41.80770 12.27054 13 ft 16 kts 354°
2026-05-04 16:51 41.80870 12.27011 13 ft 13 kts 340°
2026-05-04 16:51 41.80905 12.26741 13 ft 48 kts 249°
2026-05-04 16:52 41.80349 12.24752 27 ft 168 kts 248°
2026-05-04 16:52 41.79966 12.23293 761 ft 162 kts 249°
2026-05-04 16:53 41.79512 12.20289 1907 ft 173 kts 262°
2026-05-04 16:53 41.79210 12.14540 2753 ft 244 kts 263°
2026-05-04 16:54 41.79210 12.12174 3167 ft 264 kts 277°
2026-05-04 16:55 41.82442 12.02901 6211 ft 282 kts 299°
2026-05-04 16:55 41.84542 11.98422 7734 ft 285 kts 299°
2026-05-04 16:56 41.86665 11.93924 9305 ft 286 kts 299°
2026-05-04 16:56 41.89957 11.86844 10554 ft 327 kts 299°
2026-05-04 16:57 41.91176 11.84209 11025 ft 336 kts 299°
2026-05-04 16:57 41.93666 11.78855 12353 ft 340 kts 300°
2026-05-04 16:58 41.97456 11.70697 14335 ft 346 kts 300°
2026-05-04 16:58 41.98743 11.67927 14912 ft 348 kts 300°
2026-05-04 16:59 42.01305 11.62386 16076 ft 354 kts 299°
2026-05-04 17:00 42.06579 11.50908 18362 ft 366 kts 299°
2026-05-04 17:00 42.10642 11.42052 19849 ft 375 kts 299°
2026-05-04 17:01 42.13404 11.36030 20841 ft 380 kts 300°
2026-05-04 17:01 42.16186 11.29940 21849 ft 386 kts 300°
2026-05-04 17:02 42.19018 11.23728 22828 ft 391 kts 300°
2026-05-04 17:02 42.21875 11.17441 23734 ft 396 kts 300°
2026-05-04 17:03 42.23317 11.14265 24120 ft 398 kts 300°
2026-05-04 17:03 42.24764 11.11078 24540 ft 398 kts 300°
2026-05-04 17:03 42.27645 11.04729 25388 ft 399 kts 300°
2026-05-04 17:04 42.30542 10.98311 26214 ft 400 kts 299°
2026-05-04 17:04 42.33451 10.91867 27016 ft 402 kts 299°
2026-05-04 17:05 42.36359 10.85410 27839 ft 403 kts 298°
2026-05-04 17:05 42.39274 10.78920 28604 ft 404 kts 298°
2026-05-04 17:06 42.42175 10.72446 29324 ft 405 kts 298°
2026-05-04 17:06 42.43638 10.69173 29680 ft 406 kts 298°
2026-05-04 17:07 42.46560 10.62625 30109 ft 399 kts 298°
2026-05-04 17:07 42.47503 10.60515 30108 ft 389 kts 298°
2026-05-04 17:07 42.50731 10.53293 30096 ft 381 kts 297°
2026-05-04 17:08 42.54804 10.44093 30109 ft 381 kts 297°
2026-05-04 17:09 42.57539 10.37920 30100 ft 382 kts 297°
2026-05-04 17:09 42.60281 10.31725 30102 ft 382 kts 297°
2026-05-04 17:10 42.67085 10.16281 30093 ft 382 kts 297°
2026-05-04 17:11 42.69812 10.10068 30089 ft 383 kts 297°
2026-05-04 17:12 42.73893 10.00715 30092 ft 383 kts 297°
2026-05-04 17:13 42.80691 9.85156 30098 ft 383 kts 297°
2026-05-04 17:14 42.86116 9.72604 30079 ft 385 kts 297°
2026-05-04 17:15 42.90200 9.63164 30070 ft 385 kts 297°
2026-05-04 17:16 42.95631 9.50546 29564 ft 393 kts 296°
2026-05-04 17:16 42.99692 9.41076 28238 ft 377 kts 297°
2026-05-04 17:17 43.01006 9.38015 27843 ft 371 kts 296°
2026-05-04 17:17 43.04842 9.29042 26724 ft 358 kts 297°
2026-05-04 17:18 43.06089 9.26116 26375 ft 354 kts 297°
2026-05-04 17:18 43.08350 9.20263 25846 ft 337 kts 286°
2026-05-04 17:19 43.09814 9.14414 25706 ft 319 kts 286°
2026-05-04 17:19 43.11245 9.08650 25575 ft 323 kts 285°
2026-05-04 17:20 43.12691 9.02808 25435 ft 324 kts 286°
2026-05-04 17:20 43.14131 8.96952 25298 ft 324 kts 286°
2026-05-04 17:20 43.14850 8.94030 25229 ft 324 kts 286°
2026-05-04 17:21 43.16284 8.88185 24746 ft 323 kts 286°
2026-05-04 17:21 43.17696 8.82408 24044 ft 321 kts 286°
2026-05-04 17:22 43.18404 8.79515 23691 ft 320 kts 286°
2026-05-04 17:22 43.19111 8.76622 23276 ft 319 kts 286°
2026-05-04 17:23 43.21205 8.68009 22168 ft 316 kts 285°
2026-05-04 17:23 43.21894 8.65159 21811 ft 314 kts 285°
2026-05-04 17:23 43.23270 8.59492 21071 ft 311 kts 285°
2026-05-04 17:24 43.23941 8.56714 20715 ft 310 kts 285°
2026-05-04 17:24 43.25956 8.48330 19624 ft 306 kts 285°
2026-05-04 17:25 43.26623 8.45564 19261 ft 305 kts 284°
2026-05-04 17:25 43.27949 8.40055 18538 ft 303 kts 284°
2026-05-04 17:26 43.29262 8.34578 17796 ft 300 kts 284°
2026-05-04 17:26 43.31186 8.26495 16718 ft 296 kts 284°
2026-05-04 17:27 43.32457 8.21146 16014 ft 293 kts 284°
2026-05-04 17:27 43.33712 8.15862 15321 ft 290 kts 284°
2026-05-04 17:28 43.34744 8.11505 14749 ft 287 kts 285°
2026-05-04 17:29 43.36785 8.02870 13589 ft 284 kts 285°
2026-05-04 17:29 43.38599 7.95169 12572 ft 281 kts 284°
2026-05-04 17:30 43.40194 7.88343 11672 ft 279 kts 283°
2026-05-04 17:31 43.41363 7.83319 11019 ft 276 kts 282°
2026-05-04 17:31 43.42075 7.75602 9989 ft 272 kts 272°
2026-05-04 17:32 43.42444 7.70445 9341 ft 267 kts 272°
2026-05-04 17:33 43.42991 7.62885 8409 ft 264 kts 270°
2026-05-04 17:33 43.43165 7.60460 8108 ft 263 kts 273°
2026-05-04 17:34 43.43691 7.53269 7225 ft 267 kts 273°
2026-05-04 17:34 43.43869 7.50735 6914 ft 265 kts 273°
2026-05-04 17:35 43.44394 7.43151 5970 ft 268 kts 273°
2026-05-04 17:35 43.44749 7.38061 5347 ft 268 kts 274°
2026-05-04 17:35 43.44927 7.35522 5074 ft 265 kts 275°
2026-05-04 17:36 43.45100 7.32993 4723 ft 265 kts 275°
2026-05-04 17:36 43.45270 7.30502 4601 ft 255 kts 275°
2026-05-04 17:36 43.45432 7.28129 4501 ft 253 kts 276°
2026-05-04 17:36 43.45602 7.25677 4384 ft 260 kts 275°
2026-05-04 17:37 43.45773 7.23204 4274 ft 259 kts 275°
2026-05-04 17:37 43.45939 7.20775 4183 ft 250 kts 275°
2026-05-04 17:37 43.46256 7.18499 4033 ft 241 kts 296°
2026-05-04 17:37 43.47291 7.16777 3919 ft 227 kts 329°
2026-05-04 17:38 43.48711 7.16084 3577 ft 212 kts 358°
2026-05-04 17:38 43.50141 7.15957 3240 ft 202 kts
2026-05-04 17:38 43.51516 7.15825 2926 ft 194 kts
2026-05-04 17:38 43.52827 7.15698 2669 ft 184 kts
2026-05-04 17:39 43.55216 7.15443 2290 ft 163 kts
2026-05-04 17:39 43.56311 7.15334 2154 ft 152 kts
2026-05-04 17:39 43.57327 7.15230 2004 ft 142 kts
2026-05-04 17:40 43.58300 7.15180 1777 ft 139 kts 11°
2026-05-04 17:40 43.59253 7.15300 1563 ft 136 kts 17°
2026-05-04 17:40 43.60170 7.15512 1383 ft 134 kts 22°
2026-05-04 17:40 43.61065 7.15866 1114 ft 137 kts 26°
2026-05-04 17:41 43.61957 7.16327 953 ft 136 kts 32°
2026-05-04 17:41 43.62778 7.16957 773 ft 135 kts 44°
2026-05-04 17:41 43.63448 7.17835 589 ft 132 kts 55°
2026-05-04 17:41 43.64053 7.18778 410 ft 130 kts 54°
2026-05-04 17:42 43.64667 7.19679 223 ft 128 kts 52°
2026-05-04 17:42 43.65290 7.20538 54 ft 126 kts 50°
2026-05-04 17:42 43.65841 7.21313 22 ft 93 kts 45°
2026-05-04 17:42 43.66177 7.21777 21 ft 48 kts 45°
2026-05-04 17:43 43.66373 7.21988 23 ft 25 kts 22°
2026-05-04 17:43 43.66494 7.22051 21 ft 12 kts 16°
2026-05-04 17:43 43.66571 7.21998 21 ft 14 kts 324°
2026-05-04 17:43 43.66640 7.21904 21 ft 14 kts 305°
2026-05-04 17:44 43.66611 7.21809 21 ft 13 kts 226°
2026-05-04 17:44 43.66545 7.21716 21 ft 14 kts 225°
2026-05-04 17:44 43.66470 7.21614 21 ft 16 kts 224°
2026-05-04 17:44 43.66384 7.21498 21 ft 18 kts 226°
2026-05-04 17:45 43.66342 7.21340 21 ft 18 kts 261°
2026-05-04 17:45 43.66322 7.21158 21 ft 20 kts 261°
2026-05-04 17:45 43.66311 7.20996 21 ft 16 kts 288°
2026-05-04 17:45 43.66312 7.20844 21 ft 10 kts 261°
2026-05-04 17:46 43.66301 7.20739 21 ft 12 kts 266°
2026-05-04 17:46 43.66285 7.20663 23 ft 9 kts 229°
2026-05-04 17:46 43.66258 7.20621 21 ft 4 kts 228°
2026-05-04 17:46 43.66252 7.20612 21 ft 0 kts 228°